User: anonymous   Login
Location: Tierra del Sol
(32.6128°N, 116.3319°W)
Time: 18:37:19
(UTC-07:00)
Language:

Gurwin Techsat 1B - Orbit

View from above orbital plane
View from above orbital plane
View from above satellite
View from above satellite

Ground track
Ground track

The orbit data is extracted from the following two-line orbital elements,

1 25397U 98043D   18114.82805431 -.00000011  00000-0  14403-4 0  9995
2 25397  98.6460  56.1611 0001750 134.2864 225.8458 14.23644057 28136
Epoch (UTC): 24 April 2018 19:52:23
Eccentricity: 0.0001750
inclination: 98.6460°
perigee height: 812 km
apogee height: 814 km
right ascension of ascending node: 56.1611°
argument of perigee: 134.2864°
revolutions per day: 14.23644057
mean anomaly at epoch: 225.8458°
orbit number at epoch: 2813

The dashed part of the orbit path shows where the satellite is in the earth's shadow,  

DLR